O3b星座 FM19星 (O3B FM19)

导读

O3B FM19是由阿莱尼亚宇航公司建造、SES公司运营的中地球轨道通信卫星,属于O3b星座系统。该卫星于北京时间2019年4月4日发射升空,定点于约8070公里高度的赤道轨道,设计使用寿命10年,重量约700公斤。作为低延迟宽带卫星,它为全球提供互联网接入服务,相比同步轨道卫星显著降低信号延迟。

基本信息
目录编号:
44113
目录名称:
O3B FM19
国际标识:
2019-020B
轨道中心:
EARTH
卫星名称:
O3b星座 FM19星
卫星全名:
O3b星座 FM19星 (O3B FM19)
卫星状态:
在轨 (已飞行2626 天)
发射日期:
2019-04-04 UTC
国别 :
(O3B)
星等 :
--
轨道信息
数据来源 国际轨道数据 AOE轨道数据
星历时间 2026-06-10T13:49:43+0800
2天前
查看轨道信息
2026-06-10T02:00:00+0800
3天前
查看轨道信息
半长轴 14444.02km 14444.003km
偏心率 0.0003921 0.0003835
轨道倾角 0.067° 0.065°
近地点辐角 85.310° 98.678°
升交点赤经 337.157° 337.721°
平近点角 297.575° 116.006°
近地点 8060.219km 8060.326km
远地点 8071.547km 8071.406km
周期 287.933分钟 287.933分钟
每日圈数 5.001159 5.001168
详细信息
平衡模式:
三轴稳定
覆盖范围:
全球
运营商:
欧洲卫星公司
运营商所在国:
卢森堡
制造商(研发单位):
阿莱尼亚宇航公司
制造商所在国:
意大利
使用方式:
暂无
卫星简介
O3b卫星星座分为O3b FM卫星星座和O3b mPOWER卫星星座,前者是由阿莱尼亚宇航公司制造的第一代O3b卫星星座,后者是由波音公司制造的第二代O3b卫星星座。O3b卫星初始星座运行于赤道圆轨道,轨道高度8062公里,能够覆盖全球南北纬45°之间所有地方,在南、北纬45°~62°范围内也能提供一定的服务。该卫星仍在工作。
2D轨道图
3D轨道图
轨道高度分析图
轨道倾角分析图
轨道综合分析图
查看轨道综合分析图